ProjectID,Date,Electric Generation,Electric Utility Import,Facility Electric Load
,YYYY-MM-DD,kW,kW,kW
1,2002-08-01,0.0,,0.0
1,2002-08-02,0.0,396.3611111111111,396.3611111111111
1,2002-08-03,0.0,378.7604166666667,378.7604166666667
1,2002-08-04,0.0,391.9354583333333,391.9354583333333
1,2002-08-05,0.0,396.6249583333333,396.6249583333333
1,2002-08-06,0.0,325.7584166666667,325.7584166666667
1,2002-08-07,0.0,310.21679166666667,310.21679166666667
1,2002-08-08,0.005416666666666667,318.4904761904762,318.4958928571429
1,2002-08-09,0.0,320.22908333333334,320.22908333333334
1,2002-08-10,0.0,345.7581666666667,345.7581666666667
1,2002-08-11,0.0,357.8584166666667,357.8584166666667
1,2002-08-12,0.0,379.520875,379.520875
1,2002-08-13,0.0,394.20004166666666,394.20004166666666
1,2002-08-14,0.0,388.65433333333334,388.65433333333334
1,2002-08-15,0.0,388.462375,388.462375
1,2002-08-16,0.0,398.45195652173913,398.45195652173913
1,2002-08-17,0.0,385.39166666666665,385.39166666666665
1,2002-08-18,0.0,325.0250833333333,325.0250833333333
1,2002-08-19,0.0,355.30016666666666,355.30016666666666
1,2002-08-20,0.0,348.95416666666665,348.95416666666665
1,2002-08-21,0.0,331.67479166666664,331.67479166666664
1,2002-08-22,0.0,346.10420833333336,346.10420833333336
1,2002-08-23,0.0,345.62508333333335,345.62508333333335
1,2002-08-24,0.0,325.01270833333336,325.01270833333336
1,2002-08-25,0.0,329.24579166666666,329.24579166666666
1,2002-08-26,0.0,333.2142857142857,333.2142857142857
1,2002-08-27,0.0,345.4166666666667,345.4166666666667
1,2002-08-28,9.607916666666666,298.125,307.73291666666665
1,2002-08-29,0.0,315.75,315.75
1,2002-08-30,0.7941666666666666,296.1666666666667,296.96083333333337
1,2002-08-31,0.0,299.4166666666667,299.4166666666667
1,2002-09-01,0.0,286.5416666666667,286.5416666666667
1,2002-09-02,0.0,301.4583333333333,301.4583333333333
1,2002-09-03,0.0,323.9583333333333,323.9583333333333
1,2002-09-04,0.0,345.6666666666667,345.6666666666667
1,2002-09-05,0.0,303.7083333333333,303.7083333333333
1,2002-09-06,0.0,288.4166666666667,288.4166666666667
1,2002-09-07,0.0,302.875,302.875
1,2002-09-08,0.0,318.0416666666667,318.0416666666667
1,2002-09-09,0.0,340.375,340.375
1,2002-09-10,0.40375,347.25,347.65375
1,2002-09-11,0.0,315.75,315.75
1,2002-09-12,0.0,263.6666666666667,263.6666666666667
1,2002-09-13,0.0,306.2916666666667,306.2916666666667
1,2002-09-14,0.0,338.6666666666667,338.6666666666667
1,2002-09-15,0.0,345.9166666666667,345.9166666666667
1,2002-09-16,0.0,347.6666666666667,347.6666666666667
1,2002-09-17,0.0,306.5,306.5
1,2002-09-18,0.0,299.1666666666667,299.1666666666667
1,2002-09-19,0.0,314.0416666666667,314.0416666666667
1,2002-09-20,0.0,329.5,329.5
1,2002-09-21,0.0,348.5416666666667,348.5416666666667
1,2002-09-22,0.0,350.375,350.375
1,2002-09-23,0.0,321.9583333333333,321.9583333333333
1,2002-09-24,0.0,298.8333333333333,298.8333333333333
1,2002-09-25,0.0,299.0833333333333,299.0833333333333
1,2002-09-26,0.0,283.375,283.375
1,2002-09-27,0.0,312.0833333333333,312.0833333333333
1,2002-09-28,0.0,304.4166666666667,304.4166666666667
1,2002-09-29,0.0,271.7083333333333,271.7083333333333
1,2002-09-30,0.0,285.1666666666667,285.1666666666667
1,2002-10-01,0.0,322.75,322.75
1,2002-10-02,0.0,341.8333333333333,341.8333333333333
1,2002-10-03,0.0,334.2083333333333,334.2083333333333
1,2002-10-04,0.0,307.875,307.875
1,2002-10-05,0.0,348.8333333333333,348.8333333333333
1,2002-10-06,0.0,276.375,276.375
1,2002-10-07,0.0,300.7916666666667,300.7916666666667
1,2002-10-08,0.0,254.66666666666666,254.66666666666666
1,2002-10-09,2.2045833333333333,260.3333333333333,262.53791666666666
1,2002-10-10,0.0,269.2916666666667,269.2916666666667
1,2002-10-11,0.0,276.9166666666667,276.9166666666667
1,2002-10-12,0.0,285.1666666666667,285.1666666666667
1,2002-10-13,0.0,276.4166666666667,276.4166666666667
1,2002-10-14,0.0,243.875,243.875
1,2002-10-15,0.0,242.83333333333334,242.83333333333334
1,2002-10-16,0.0,266.6666666666667,266.6666666666667
1,2002-10-17,7.185833333333334,251.625,258.81083333333333
1,2002-10-18,3.9612499999999997,250.08333333333334,254.04458333333335
1,2002-10-19,0.0,261.5833333333333,261.5833333333333
1,2002-10-20,0.0,248.125,248.125
1,2002-10-21,0.0,245.33333333333334,245.33333333333334
1,2002-10-22,0.0,242.5,242.5
1,2002-10-23,0.0,250.83333333333334,250.83333333333334
1,2002-10-24,0.0,231.20833333333334,231.20833333333334
1,2002-10-25,0.0,240.85714285714286,240.85714285714286
1,2002-10-26,0.0,272.7857142857143,272.7857142857143
1,2002-10-27,0.0,240.56521739130434,240.56521739130434
1,2002-10-28,0.0,243.1818181818182,243.1818181818182
1,2002-10-29,0.0,223.91666666666666,223.91666666666666
1,2002-10-30,0.0,225.33333333333334,225.33333333333334
1,2002-10-31,0.0,217.91666666666666,217.91666666666666
1,2002-11-01,0.0,214.54166666666666,214.54166666666666
1,2002-11-02,0.0,211.79166666666666,211.79166666666666
1,2002-11-03,0.0,210.91666666666666,210.91666666666666
1,2002-11-04,0.0,221.45833333333334,221.45833333333334
1,2002-11-05,0.0,225.16666666666666,225.16666666666666
1,2002-11-06,0.0,233.0,233.0
1,2002-11-07,0.0,213.625,213.625
1,2002-11-08,0.0,220.0,220.0
1,2002-11-09,0.0,235.875,235.875
1,2002-11-10,0.0,256.2916666666667,256.2916666666667
1,2002-11-11,0.0,267.8333333333333,267.8333333333333
1,2002-11-12,0.0,252.20833333333334,252.20833333333334
1,2002-11-13,0.0,254.0,254.0
1,2002-11-14,0.0,239.08333333333334,239.08333333333334
1,2002-11-15,0.0,248.70833333333334,248.70833333333334
1,2002-11-16,0.0,249.0,249.0
1,2002-11-17,0.0,232.08333333333334,232.08333333333334
1,2002-11-18,0.0,233.79166666666666,233.79166666666666
1,2002-11-19,0.0,241.0,241.0
1,2002-11-20,0.0,239.16666666666666,239.16666666666666
1,2002-11-21,0.0,243.875,243.875
1,2002-11-22,0.0,259.8333333333333,259.8333333333333
1,2002-11-23,0.0,230.45833333333334,230.45833333333334
1,2002-11-24,0.0,228.5,228.5
1,2002-11-25,0.0,242.875,242.875
1,2002-11-26,0.0,234.66666666666666,234.66666666666666
1,2002-11-27,0.0,210.5,210.5
1,2002-11-28,0.0,207.625,207.625
1,2002-11-29,0.0,214.91666666666666,214.91666666666666
1,2002-11-30,0.0,222.625,222.625
1,2002-12-01,0.0,213.5,213.5
1,2002-12-02,0.0,217.91666666666666,217.91666666666666
1,2002-12-03,0.0,214.29166666666666,214.29166666666666
1,2002-12-04,0.0,216.08333333333334,216.08333333333334
1,2002-12-05,0.0,217.70833333333334,217.70833333333334
1,2002-12-06,0.0,217.83333333333334,217.83333333333334
1,2002-12-07,0.0,218.20833333333334,218.20833333333334
1,2002-12-08,0.0,220.91666666666666,220.91666666666666
1,2002-12-09,0.0,214.41666666666666,214.41666666666666
1,2002-12-10,0.0,220.5,220.5
1,2002-12-11,0.0,223.625,223.625
1,2002-12-12,0.0,224.58333333333334,224.58333333333334
1,2002-12-13,0.0,229.45833333333334,229.45833333333334
1,2002-12-14,0.0,240.9090909090909,240.9090909090909
1,2002-12-15,0.0,222.94444444444446,222.94444444444446
1,2002-12-16,0.0,221.79166666666666,221.79166666666666
1,2002-12-17,0.0,216.5,216.5
1,2002-12-18,0.0,219.29166666666666,219.29166666666666
1,2002-12-19,0.0,223.45833333333334,223.45833333333334
1,2002-12-20,0.0,255.75,255.75
1,2002-12-21,0.0,223.58333333333334,223.58333333333334
1,2002-12-22,0.0,223.08333333333334,223.08333333333334
1,2002-12-23,0.0,221.66666666666666,221.66666666666666
1,2002-12-24,0.0,218.33333333333334,218.33333333333334
1,2002-12-25,0.0,207.625,207.625
1,2002-12-26,0.0,213.79166666666666,213.79166666666666
1,2002-12-27,0.0,228.20833333333334,228.20833333333334
1,2002-12-28,0.0,224.95833333333334,224.95833333333334
1,2002-12-29,0.0,226.45833333333334,226.45833333333334
1,2002-12-30,0.0,227.0,227.0
1,2002-12-31,0.0,246.54166666666666,246.54166666666666
1,2003-01-01,0.0,235.0,235.0
1,2003-01-02,0.0,226.875,226.875
1,2003-01-03,0.0,228.54166666666666,228.54166666666666
1,2003-01-04,0.0,223.91666666666666,223.91666666666666
1,2003-01-05,0.0,226.16666666666666,226.16666666666666
1,2003-01-06,0.0,228.0,228.0
1,2003-01-07,0.0,223.29166666666666,223.29166666666666
1,2003-01-08,0.0,226.41666666666666,226.41666666666666
1,2003-01-09,0.0,231.33333333333334,231.33333333333334
1,2003-01-10,0.0,229.20833333333334,229.20833333333334
1,2003-01-11,0.0,223.33333333333334,223.33333333333334
1,2003-01-12,0.0,223.5,223.5
1,2003-01-13,0.0,223.875,223.875
1,2003-01-14,0.0,223.29166666666666,223.29166666666666
1,2003-01-15,0.0,224.625,224.625
1,2003-01-16,0.0,223.625,223.625
1,2003-01-17,0.0,224.70833333333334,224.70833333333334
1,2003-01-18,0.0,220.875,220.875
1,2003-01-19,0.0,222.33333333333334,222.33333333333334
1,2003-01-20,0.0,221.375,221.375
1,2003-01-21,0.37999999999999995,220.70833333333334,221.08833333333334
1,2003-01-22,0.0,219.20833333333334,219.20833333333334
1,2003-01-23,0.0,218.58333333333334,218.58333333333334
1,2003-01-24,0.0,220.16666666666666,220.16666666666666
1,2003-01-25,0.0,222.875,222.875
1,2003-01-26,0.0,226.0,226.0
1,2003-01-27,0.0,219.83333333333334,219.83333333333334
1,2003-01-28,0.0,215.0,215.0
1,2003-01-29,0.0,228.0,228.0
1,2003-01-30,0.0,227.29166666666666,227.29166666666666
1,2003-01-31,0.0,230.875,230.875
1,2003-02-01,0.0,229.66666666666666,229.66666666666666
1,2003-02-02,0.0,228.16666666666666,228.16666666666666
1,2003-02-03,0.0,230.58333333333334,230.58333333333334
1,2003-02-04,0.0,238.75,238.75
1,2003-02-05,0.0,224.79166666666666,224.79166666666666
1,2003-02-06,0.0,222.66666666666666,222.66666666666666
1,2003-02-07,0.0,226.33333333333334,226.33333333333334
1,2003-02-08,0.0,223.875,223.875
1,2003-02-09,0.0,221.58333333333334,221.58333333333334
1,2003-02-10,0.0,228.83333333333334,228.83333333333334
1,2003-02-11,0.0,223.45833333333334,223.45833333333334
1,2003-02-12,0.0,223.08333333333334,223.08333333333334
1,2003-02-13,0.0,221.625,221.625
1,2003-02-14,0.0,225.0,225.0
1,2003-02-15,0.0,222.83333333333334,222.83333333333334
1,2003-02-16,0.0,223.375,223.375
1,2003-02-17,0.0,216.04166666666666,216.04166666666666
1,2003-02-18,0.0,225.75,225.75
1,2003-02-19,0.0,231.79166666666666,231.79166666666666
1,2003-02-20,0.0,232.41666666666666,232.41666666666666
1,2003-02-21,0.0,233.83333333333334,233.83333333333334
1,2003-02-22,0.0,237.25,237.25
1,2003-02-23,0.0,236.625,236.625
1,2003-02-24,0.0,227.125,227.125
1,2003-02-25,0.0,224.95833333333334,224.95833333333334
1,2003-02-26,0.0,225.16666666666666,225.16666666666666
1,2003-02-27,0.0,224.29166666666666,224.29166666666666
1,2003-02-28,0.0,228.04166666666666,228.04166666666666
1,2003-03-01,0.0,231.5,231.5
1,2003-03-02,0.0,237.125,237.125
1,2003-03-03,0.0,220.33333333333334,220.33333333333334
1,2003-03-04,0.0,226.16666666666666,226.16666666666666
1,2003-03-05,0.0,242.375,242.375
1,2003-03-06,0.0,226.54166666666666,226.54166666666666
1,2003-03-07,0.0,223.91666666666666,223.91666666666666
1,2003-03-08,0.0,228.25,228.25
1,2003-03-09,0.0,227.66666666666666,227.66666666666666
1,2003-03-10,0.0,216.125,216.125
1,2003-03-11,0.0,207.75,207.75
1,2003-03-12,0.0,227.66666666666666,227.66666666666666
1,2003-03-13,0.21625000000000003,228.25,228.46625
1,2003-03-14,0.0,222.54166666666666,222.54166666666666
1,2003-03-15,0.0,226.95833333333334,226.95833333333334
1,2003-03-16,0.0,241.08333333333334,241.08333333333334
1,2003-03-17,0.0,254.75,254.75
1,2003-03-18,0.0,242.54166666666666,242.54166666666666
1,2003-03-19,0.0,228.79166666666666,228.79166666666666
1,2003-03-20,0.0,232.91666666666666,232.91666666666666
1,2003-03-21,0.18500000000000003,255.66666666666666,255.85166666666666
1,2003-03-22,0.0,247.125,247.125
1,2003-03-23,0.0,225.375,225.375
1,2003-03-24,0.0,228.29166666666666,228.29166666666666
1,2003-03-25,3.799166666666667,228.25,232.04916666666668
1,2003-03-26,0.0,241.375,241.375
1,2003-03-27,0.0,229.83333333333334,229.83333333333334
1,2003-03-28,0.0,230.45833333333334,230.45833333333334
1,2003-03-29,0.0,258.1666666666667,258.1666666666667
1,2003-03-30,0.0,233.375,233.375
1,2003-03-31,0.0,216.79166666666666,216.79166666666666
1,2003-04-01,0.0,223.20833333333334,223.20833333333334
1,2003-04-02,0.0,230.33333333333334,230.33333333333334
1,2003-04-03,0.0,230.0,230.0
1,2003-04-04,0.0,230.125,230.125
1,2003-04-05,0.0,225.16666666666666,225.16666666666666
1,2003-04-06,0.0,206.7826086956522,206.7826086956522
1,2003-04-07,0.0,219.86363636363637,219.86363636363637
1,2003-04-08,0.0,221.20833333333334,221.20833333333334
1,2003-04-09,0.0,223.16666666666666,223.16666666666666
1,2003-04-10,0.0,222.54166666666666,222.54166666666666
1,2003-04-11,0.0,227.91666666666666,227.91666666666666
1,2003-04-12,0.0,239.08333333333334,239.08333333333334
1,2003-04-13,0.0,226.41666666666666,226.41666666666666
1,2003-04-14,0.0,225.0,225.0
1,2003-04-15,0.0,244.375,244.375
1,2003-04-16,0.0,266.875,266.875
1,2003-04-17,0.0,224.375,224.375
1,2003-04-18,29.367500000000003,202.66666666666666,232.03416666666666
1,2003-04-19,56.67416666666667,183.54166666666666,240.21583333333334
1,2003-04-20,56.66833333333333,176.83333333333334,233.50166666666667
1,2003-04-21,56.64416666666667,178.20833333333334,234.85250000000002
1,2003-04-22,56.627916666666664,192.95833333333334,249.58625
1,2003-04-23,28.747083333333332,188.95833333333334,217.70541666666668
1,2003-04-24,35.58208333333334,190.125,225.70708333333334
1,2003-04-25,56.67316666666667,174.45833333333334,231.13150000000002
1,2003-04-26,56.676375,195.04166666666666,251.71804166666666
1,2003-04-27,35.41675,192.93333333333334,228.35008333333334
1,2003-04-28,56.68754166666667,195.79166666666666,252.47920833333333
1,2003-04-29,56.208333333333336,203.33333333333334,259.5416666666667
1,2003-04-30,56.66258333333334,184.75,241.41258333333334
1,2003-05-01,56.650125,207.54166666666666,264.19179166666663
1,2003-05-02,56.650125,217.66666666666666,274.31679166666663
1,2003-05-03,56.699958333333335,196.125,252.82495833333334
1,2003-05-04,56.670791666666666,183.125,239.79579166666667
1,2003-05-05,56.674958333333336,178.66666666666666,235.341625
1,2003-05-06,56.637708333333336,196.20833333333334,252.84604166666668
1,2003-05-07,56.43745833333333,211.375,267.8124583333333
1,2003-05-08,56.62929166666667,199.04166666666666,255.67095833333332
1,2003-05-09,56.629333333333335,199.29166666666666,255.921
1,2003-05-10,56.562666666666665,202.25,258.81266666666664
1,2003-05-11,56.64183333333333,202.45833333333334,259.10016666666667
1,2003-05-12,56.62525,200.125,256.75025
1,2003-05-13,42.29591666666666,198.875,241.17091666666667
1,2003-05-14,49.49604166666666,196.75,246.24604166666666
1,2003-05-15,23.741625,221.57142857142858,245.31305357142858
1,2003-05-16,0.24579166666666666,243.83333333333334,244.079125
1,2003-05-17,0.141875,240.45833333333334,240.60020833333334
1,2003-05-18,0.146,235.16666666666666,235.31266666666664
1,2003-05-19,0.12916666666666668,247.45833333333334,247.5875
1,2003-05-20,0.1834583333333333,250.33333333333334,250.51679166666668
1,2003-05-21,0.14591666666666667,251.08333333333334,251.22925
1,2003-05-22,0.16666666666666666,249.375,249.54166666666666
1,2003-05-23,31.266750000000002,233.08333333333334,264.3500833333334
1,2003-05-24,56.68754166666667,205.91666666666666,262.6042083333333
1,2003-05-25,56.69570833333333,197.375,254.07070833333333
1,2003-05-26,56.675125,200.5,257.175125
1,2003-05-27,56.70395833333333,204.45833333333334,261.16229166666665
1,2003-05-28,56.716625,205.625,262.341625
1,2003-05-29,56.154125,215.41666666666666,271.57079166666665
1,2003-05-30,55.32091666666667,226.95833333333334,282.27925
1,2003-05-31,56.62916666666666,220.45833333333334,277.0875
1,2003-06-01,56.66675,210.79166666666666,267.45841666666666
1,2003-06-02,56.237500000000004,199.25,255.4875
1,2003-06-03,56.39179166666667,204.25,260.6417916666667
1,2003-06-04,56.204125,204.75,260.954125
1,2003-06-05,45.416583333333335,222.95833333333334,268.37491666666665
1,2003-06-06,43.40841666666666,210.4,253.80841666666666
1,2003-06-07,56.629333333333335,214.79166666666666,271.421
1,2003-06-08,56.662458333333326,212.41666666666666,269.079125
1,2003-06-09,56.337583333333335,213.75,270.0875833333333
1,2003-06-10,55.20008333333333,228.45833333333334,283.65841666666665
1,2003-06-11,56.612625,232.625,289.237625
1,2003-06-12,54.787458333333326,255.83333333333334,310.62079166666666
1,2003-06-13,56.545791666666666,220.5,277.0457916666667
1,2003-06-14,54.90408333333334,241.66666666666666,296.57075
1,2003-06-15,54.804,235.16666666666666,289.97066666666666
1,2003-06-16,56.65866666666667,210.66666666666666,267.32533333333333
1,2003-06-17,56.60854166666667,202.66666666666666,259.27520833333335
1,2003-06-18,56.65825,223.0,279.65825
1,2003-06-19,56.099875,229.75,285.849875
1,2003-06-20,56.07916666666667,229.91666666666666,285.99583333333334
1,2003-06-21,56.525083333333335,214.45833333333334,270.9834166666667
1,2003-06-22,56.525125,208.83333333333334,265.3584583333334
1,2003-06-23,54.279333333333334,237.375,291.65433333333334
1,2003-06-24,52.59145833333333,264.9583333333333,317.54979166666664
1,2003-06-25,51.012708333333336,275.0,326.0127083333333
1,2003-06-26,48.06245833333333,303.625,351.6874583333333
1,2003-06-27,45.520833333333336,312.875,358.3958333333333
1,2003-06-28,55.041583333333335,243.08333333333334,298.12491666666665
1,2003-06-29,55.67058333333333,247.91666666666666,303.58725
1,2003-06-30,53.750125,281.0416666666667,334.79179166666665
1,2003-07-01,54.38345833333333,253.41666666666666,307.800125
1,2003-07-02,52.962541666666674,274.8333333333333,327.79587499999997
1,2003-07-03,56.650041666666674,250.25,306.90004166666665
1,2003-07-04,53.15391666666667,292.2083333333333,345.36224999999996
1,2003-07-05,49.158500000000004,335.9166666666667,385.0751666666667
1,2003-07-06,49.591499999999996,316.9583333333333,366.5498333333333
1,2003-07-07,52.320875,306.2916666666667,358.6125416666667
1,2003-07-08,48.8125,314.625,363.4375
1,2003-07-09,54.23341666666667,276.6666666666667,330.9000833333333
1,2003-07-10,54.486875,223.59875,278.085625
1,2003-07-11,54.354166666666664,267.5108333333333,321.865
1,2003-07-12,52.147083333333335,276.7808333333333,328.92791666666665
1,2003-07-13,52.645833333333336,256.84158333333335,309.48741666666666
1,2003-07-14,55.38041666666667,266.27933333333334,321.65975000000003
1,2003-07-15,54.625,267.7375416666667,322.3625416666667
1,2003-07-16,53.47125,304.65000000000003,358.12125000000003
1,2003-07-17,52.40620833333333,281.80825,334.2144583333333
1,2003-07-18,52.23541666666667,282.72499999999997,334.9604166666666
1,2003-07-19,52.949958333333335,250.34583333333333,303.2957916666667
1,2003-07-20,52.849958333333326,263.99170833333335,316.8416666666667
1,2003-07-21,53.104166666666664,291.46654166666667,344.57070833333336
1,2003-07-22,52.045791666666666,297.5374166666667,349.58320833333335
1,2003-07-23,51.98758333333333,288.4832916666667,340.470875
1,2003-07-24,51.783208333333334,293.271,345.05420833333335
1,2003-07-25,50.983291666666666,284.91249999999997,335.89579166666664
1,2003-07-26,50.78329166666666,297.02074999999996,347.80404166666665
1,2003-07-27,49.23333333333333,312.74583333333334,361.9791666666667
1,2003-07-28,50.27920833333334,298.13733333333334,348.41654166666666
1,2003-07-29,53.120916666666666,261.0624583333333,314.183375
1,2003-07-30,54.28333333333333,262.6748333333333,316.95816666666667
1,2003-07-31,54.54575,263.5292083333333,318.0749583333333
1,2003-08-01,52.85,289.5875833333333,342.43758333333335
1,2003-08-02,50.89158333333333,302.0250833333333,352.91666666666663
1,2003-08-03,50.979166666666664,303.625,354.6041666666667
1,2003-08-04,50.85,307.94599999999997,358.796
1,2003-08-05,50.91254166666667,300.07070833333336,350.98325
1,2003-08-06,50.449999999999996,295.39158333333336,345.84158333333335
1,2003-08-07,50.220708333333334,293.73758333333336,343.9582916666667
1,2003-08-08,50.583375,295.4915833333333,346.0749583333333
1,2003-08-09,50.900125,294.1334166666667,345.0335416666667
1,2003-08-10,2.5500416666666665,337.7916666666667,340.3417083333334
1,2003-08-11,0.09179166666666666,344.9583333333333,345.050125
1,2003-08-12,0.08345833333333334,351.7916666666667,351.875125
1,2003-08-13,0.07945833333333334,354.6666666666667,354.746125
1,2003-08-14,0.0,300.2,300.2
1,2003-08-15,0.09608333333333334,367.0,367.09608333333335
1,2003-08-16,0.0835,346.4583333333333,346.54183333333333
1,2003-08-17,0.020916666666666667,305.875,305.89591666666666
1,2003-08-18,0.06683333333333334,300.9166666666667,300.9835
1,2003-08-19,0.07954166666666666,318.2083333333333,318.287875
1,2003-08-20,0.09191666666666666,330.9166666666667,331.0085833333334
1,2003-08-21,0.10016666666666667,343.25,343.35016666666667
1,2003-08-22,0.08779166666666667,361.0416666666667,361.12945833333333
1,2003-08-23,0.024999999999999998,298.9583333333333,298.9833333333333
1,2003-08-24,0.025166666666666667,260.875,260.9001666666667
1,2003-08-25,0.083625,298.4166666666667,298.50029166666667
1,2003-08-26,0.07933333333333333,308.375,308.45433333333335
1,2003-08-27,0.10037499999999999,323.2916666666667,323.39204166666667
1,2003-08-28,0.06679166666666667,291.1666666666667,291.2334583333334
1,2003-08-29,0.07525,319.0,319.07525
1,2003-08-30,0.06270833333333332,337.5416666666667,337.604375
1,2003-08-31,0.0335,276.0,276.0335
1,2003-09-01,0.050166666666666665,271.4583333333333,271.50849999999997
1,2003-09-02,0.05433333333333334,272.5416666666667,272.596
1,2003-09-03,0.06266666666666666,284.875,284.93766666666664
1,2003-09-04,0.05441666666666667,316.5833333333333,316.63775
1,2003-09-05,0.029249999999999998,289.75,289.77925
1,2003-09-06,0.0335,278.0,278.0335
1,2003-09-07,0.008333333333333333,286.4166666666667,286.425
1,2003-09-08,0.07095833333333333,289.5,289.57095833333335
1,2003-09-09,0.04604166666666667,276.4583333333333,276.504375
1,2003-09-10,0.08354166666666667,270.2083333333333,270.291875
1,2003-09-11,21.054291666666668,268.5833333333333,289.63762499999996
1,2003-09-12,11.929041666666668,193.4,205.32904166666668
1,2003-09-13,37.770875,288.75,326.520875
1,2003-09-14,55.56670833333334,283.5833333333333,339.15004166666665
1,2003-09-15,55.47483333333333,271.0416666666667,326.5165
1,2003-09-16,54.46666666666667,246.5,300.9666666666667
1,2003-09-17,55.73341666666667,230.125,285.8584166666667
1,2003-09-18,56.895833333333336,227.125,284.0208333333333
1,2003-09-19,54.49579166666666,289.875,344.37079166666666
1,2003-09-20,52.94579166666667,268.0833333333333,321.02912499999996
1,2003-09-21,55.108375,230.125,285.233375
1,2003-09-22,56.22483333333333,235.58333333333334,291.8081666666667
1,2003-09-23,53.966791666666666,254.79166666666666,308.75845833333335
1,2003-09-24,55.220625000000005,220.58333333333334,275.80395833333336
1,2003-09-25,54.27916666666667,247.5,301.7791666666667
1,2003-09-26,54.129124999999995,245.5,299.629125
1,2003-09-27,53.420875,271.8333333333333,325.25420833333334
1,2003-09-28,53.71670833333334,243.375,297.0917083333333
1,2003-09-29,33.116708333333335,218.91666666666666,252.03337499999998
1,2003-09-30,0.008333333333333333,240.04166666666666,240.04999999999998
1,2003-10-01,0.012583333333333334,245.25,245.26258333333334
1,2003-10-02,20.187541666666664,216.875,237.06254166666668
1,2003-10-03,57.254041666666666,174.91666666666666,232.17070833333332
1,2003-10-04,56.875125,185.625,242.500125
1,2003-10-05,57.14166666666667,177.625,234.76666666666668
1,2003-10-06,57.25,177.95833333333334,235.20833333333334
1,2003-10-07,57.054375,181.875,238.929375
1,2003-10-08,55.804,213.08333333333334,268.88733333333334
1,2003-10-09,28.833333333333332,238.83333333333334,267.6666666666667
1,2003-10-10,10.487666666666668,248.625,259.11266666666666
1,2003-10-11,56.67483333333333,199.125,255.79983333333334
1,2003-10-12,56.800125,197.16666666666666,253.96679166666667
1,2003-10-13,55.900125,197.70833333333334,253.60845833333335
1,2003-10-14,56.75429166666667,202.0,258.7542916666667
1,2003-10-15,55.94979166666667,198.70833333333334,254.658125